Location: Desert Center
(33.7130°N, 115.4010°W)
Time: 03:23:22
(UTC-08:00)

Tiangong - Visible Passes

Search period start: 06 December 2021 00:00
Search period end: 16 December 2021 00:00
Orbit: 380 x 384 km, 41.5° (Epoch: 06 December)

Date Brightness Start Highest point End Pass type
(mag) Time Alt. Az. Time Alt. Az. Time Alt. Az.
06 Dec 2.4 17:29:34 10° SSW 17:32:18 27° SE 17:33:46 19° ESE visible
07 Dec 1.0 18:05:18 10° WSW 18:08:27 77° NNW 18:08:29 76° NNW visible
08 Dec 1.4 17:04:52 10° SW 17:07:57 53° SSE 17:10:56 11° ENE visible
08 Dec 3.8 18:42:01 10° W 18:43:05 17° WNW 18:43:05 17° WNW visible
09 Dec 1.8 17:41:09 10° W 17:44:11 44° NNW 17:45:28 27° NE visible
10 Dec 3.1 18:18:03 10° WNW 18:19:58 21° NNW 18:19:58 21° NNW visible
11 Dec 2.4 17:17:03 10° W 17:19:53 30° NNW 17:22:15 13° NE visible
12 Dec 2.9 17:53:57 10° NW 17:56:23 20° N 17:56:40 20° N visible
13 Dec 3.8 18:30:27 10° NW 18:31:03 13° NW 18:31:03 13° NW visible
14 Dec 2.9 17:29:39 10° NW 17:32:01 19° N 17:33:19 15° NNE visible
15 Dec 2.8 18:05:49 10° NW 18:07:45 22° N 18:07:45 22° N visible
